When you browse on this site, cookies collect data to enhance your experience and personalize the content and advertising you see.
Visit our Privacy Policy to learn more. By continuing to use the site, you agree to this use of cookies and data.
  • Em Portugal
  • Lista de países
  • Para 7 dias
  • Temperatura da água
  • Mapa do tempo
  • Widgets de tempo
  • user-avatar
    Iniciar Sessão

    Previsão horária em Brugia

    Hoje, 4 Junho, Quinta-feira

    Tempo Temperatura Precipitação Vento Pressão Humidade
    00:00 +13°C° 0 mm 6 m/s 751 mmHg 80%
    01:00 +13°C° 0 mm 6 m/s 750 mmHg 78%
    02:00 +13°C° 0 mm 6 m/s 750 mmHg 77%
    03:00 +11°C° 0 mm 6 m/s 749 mmHg 76%
    04:00 +13°C° 0 mm 6 m/s 749 mmHg 74%
    05:00 +13°C° 0 mm 6 m/s 749 mmHg 73%
    06:00 +14°C° 0 mm 6 m/s 749 mmHg 71%
    07:00 +14°C° 0.1 mm 6 m/s 749 mmHg 71%
    08:00 +15°C° 0.1 mm 6 m/s 748 mmHg 71%
    09:00 +15°C° 0.1 mm 6 m/s 748 mmHg 70%
    10:00 +14°C° 0.3 mm 6 m/s 748 mmHg 75%
    11:00 +13°C° 0.3 mm 6 m/s 748 mmHg 79%
    12:00 +13°C° 0.3 mm 6 m/s 748 mmHg 83%
    13:00 +12°C° 0.2 mm 7 m/s 748 mmHg 81%
    14:00 +12°C° 0.2 mm 8 m/s 748 mmHg 78%
    15:00 +13°C° 0.2 mm 9 m/s 748 mmHg 75%
    16:00 +12°C° 0.1 mm 8 m/s 748 mmHg 76%
    17:00 +12°C° 0.1 mm 7 m/s 748 mmHg 76%
    18:00 +11°C° 0.1 mm 6 m/s 748 mmHg 77%
    19:00 +10°C° 0 mm 5 m/s 748 mmHg 78%
    20:00 +10°C° 0 mm 4 m/s 749 mmHg 79%
    21:00 +9°C° 0 mm 3 m/s 749 mmHg 80%
    22:00 +9°C° 0 mm 3 m/s 749 mmHg 80%
    23:00 +8°C° 0 mm 3 m/s 748 mmHg 81%

    Amanhã, 5 Junho, Sexta-feira

    Tempo Temperatura Precipitação Vento Pressão Humidade
    00:00 +8°C° 0 mm 3 m/s 748 mmHg 82%
    01:00 +7°C° 0 mm 4 m/s 748 mmHg 84%
    02:00 +7°C° 0 mm 5 m/s 747 mmHg 86%
    03:00 +7°C° 0 mm 5 m/s 747 mmHg 88%
    04:00 +8°C° 0.4 mm 6 m/s 746 mmHg 87%
    05:00 +9°C° 0.4 mm 7 m/s 746 mmHg 86%
    06:00 +10°C° 0.4 mm 7 m/s 745 mmHg 85%
    07:00 +11°C° 0.6 mm 8 m/s 745 mmHg 81%
    08:00 +11°C° 0.6 mm 8 m/s 745 mmHg 76%
    09:00 +12°C° 0.6 mm 9 m/s 744 mmHg 72%
    10:00 +12°C° 0.3 mm 9 m/s 744 mmHg 68%
    11:00 +13°C° 0.3 mm 9 m/s 745 mmHg 65%
    12:00 +13°C° 0.3 mm 9 m/s 745 mmHg 61%
    13:00 +12°C° 0.7 mm 8 m/s 745 mmHg 66%
    14:00 +12°C° 0.7 mm 8 m/s 745 mmHg 71%
    15:00 +11°C° 0.7 mm 7 m/s 745 mmHg 76%
    16:00 +11°C° 0.2 mm 6 m/s 745 mmHg 74%
    17:00 +12°C° 0.2 mm 5 m/s 746 mmHg 73%
    18:00 +12°C° 0.2 mm 4 m/s 746 mmHg 72%
    19:00 +11°C° 0 mm 4 m/s 746 mmHg 74%
    20:00 +10°C° 0 mm 4 m/s 746 mmHg 77%
    21:00 +8°C° 0 mm 5 m/s 747 mmHg 79%
    22:00 +8°C° 0.2 mm 5 m/s 747 mmHg 81%
    23:00 +8°C° 0.2 mm 6 m/s 747 mmHg 82%

    Depois de amanhã, 6 Junho, Sábado

    Tempo Temperatura Precipitação Vento Pressão Humidade
    00:00 +6°C° 0.2 mm 7 m/s 747 mmHg 84%
    01:00 +7°C° 0 mm 6 m/s 747 mmHg 84%
    02:00 +7°C° 0 mm 6 m/s 747 mmHg 83%
    03:00 +7°C° 0 mm 6 m/s 747 mmHg 83%
    04:00 +6°C° 0 mm 7 m/s 748 mmHg 79%
    05:00 +8°C° 0 mm 7 m/s 748 mmHg 76%
    06:00 +9°C° 0 mm 8 m/s 748 mmHg 73%
    07:00 +10°C° 0 mm 9 m/s 748 mmHg 66%
    08:00 +11°C° 0 mm 10 m/s 748 mmHg 59%
    09:00 +12°C° 0 mm 11 m/s 748 mmHg 52%
    10:00 +13°C° 0 mm 11 m/s 748 mmHg 51%
    11:00 +13°C° 0 mm 12 m/s 748 mmHg 50%
    12:00 +13°C° 0 mm 12 m/s 748 mmHg 48%
    13:00 +13°C° 0 mm 12 m/s 748 mmHg 51%
    14:00 +13°C° 0 mm 12 m/s 748 mmHg 54%
    15:00 +12°C° 0 mm 12 m/s 748 mmHg 56%
    16:00 +12°C° 0 mm 12 m/s 748 mmHg 59%
    17:00 +12°C° 0 mm 12 m/s 748 mmHg 62%
    18:00 +11°C° 0 mm 11 m/s 749 mmHg 65%
    19:00 +11°C° 0.1 mm 11 m/s 749 mmHg 68%
    20:00 +11°C° 0.1 mm 10 m/s 749 mmHg 71%
    21:00 +11°C° 0.1 mm 10 m/s 749 mmHg 74%
    22:00 +10°C° 0.2 mm 9 m/s 749 mmHg 76%
    23:00 +10°C° 0.2 mm 9 m/s 749 mmHg 79%

    7 Junho, Domingo

    Tempo Temperatura Precipitação Vento Pressão Humidade
    00:00 +9°C° 0.2 mm 8 m/s 749 mmHg 82%
    01:00 +9°C° 0.3 mm 8 m/s 750 mmHg 85%
    02:00 +9°C° 0.3 mm 7 m/s 750 mmHg 87%
    03:00 +9°C° 0.3 mm 6 m/s 750 mmHg 89%
    04:00 +9°C° 0.2 mm 6 m/s 751 mmHg 87%
    05:00 +10°C° 0.2 mm 6 m/s 751 mmHg 85%
    06:00 +10°C° 0.2 mm 6 m/s 752 mmHg 83%
    07:00 +13°C° 0.1 mm 6 m/s 752 mmHg 78%
    08:00 +14°C° 0.1 mm 6 m/s 753 mmHg 73%
    09:00 +15°C° 0.1 mm 6 m/s 754 mmHg 67%
    10:00 +16°C° 0 mm 6 m/s 754 mmHg 63%
    11:00 +17°C° 0 mm 5 m/s 754 mmHg 58%
    12:00 +17°C° 0 mm 5 m/s 755 mmHg 54%
    13:00 +19°C° 0 mm 5 m/s 755 mmHg 54%
    14:00 +19°C° 0 mm 4 m/s 755 mmHg 53%
    15:00 +19°C° 0 mm 4 m/s 756 mmHg 53%
    16:00 +18°C° 0 mm 4 m/s 756 mmHg 57%
    17:00 +18°C° 0 mm 4 m/s 756 mmHg 61%
    18:00 +17°C° 0 mm 4 m/s 756 mmHg 66%
    19:00 +15°C° 0 mm 4 m/s 757 mmHg 72%
    20:00 +13°C° 0 mm 4 m/s 757 mmHg 78%
    21:00 +12°C° 0 mm 4 m/s 758 mmHg 84%
    22:00 +11°C° 0.1 mm 4 m/s 758 mmHg 86%
    23:00 +11°C° 0.1 mm 4 m/s 758 mmHg 88%

    8 Junho, Segunda-feira

    Tempo Temperatura Precipitação Vento Pressão Humidade
    00:00 +10°C° 0.1 mm 4 m/s 758 mmHg 90%
    01:00 +10°C° 0.1 mm 4 m/s 758 mmHg 91%
    02:00 +10°C° 0.1 mm 3 m/s 758 mmHg 92%
    03:00 +10°C° 0.1 mm 3 m/s 758 mmHg 93%
    04:00 +11°C° 0 mm 3 m/s 759 mmHg 90%
    05:00 +12°C° 0 mm 3 m/s 759 mmHg 87%
    06:00 +13°C° 0 mm 3 m/s 759 mmHg 84%
    07:00 +14°C° 0 mm 4 m/s 759 mmHg 79%
    08:00 +17°C° 0 mm 4 m/s 760 mmHg 74%
    09:00 +17°C° 0 mm 5 m/s 760 mmHg 70%
    10:00 +17°C° 0.3 mm 6 m/s 760 mmHg 69%
    11:00 +17°C° 0.3 mm 6 m/s 761 mmHg 68%
    12:00 +17°C° 0.3 mm 7 m/s 761 mmHg 68%
    13:00 +17°C° 0 mm 8 m/s 761 mmHg 67%
    14:00 +16°C° 0 mm 8 m/s 761 mmHg 66%
    15:00 +16°C° 0 mm 8 m/s 761 mmHg 66%
    16:00 +15°C° 0 mm 8 m/s 762 mmHg 66%
    17:00 +15°C° 0 mm 7 m/s 762 mmHg 67%
    18:00 +14°C° 0 mm 7 m/s 762 mmHg 67%
    19:00 +13°C° 0 mm 6 m/s 763 mmHg 71%
    20:00 +11°C° 0 mm 6 m/s 763 mmHg 75%
    21:00 +9°C° 0 mm 5 m/s 764 mmHg 80%
    22:00 +9°C° 0 mm 5 m/s 764 mmHg 80%
    23:00 +9°C° 0 mm 5 m/s 764 mmHg 80%

    9 Junho, Terça-feira

    Tempo Temperatura Precipitação Vento Pressão Humidade
    00:00 +10°C° 0 mm 4 m/s 764 mmHg 80%
    01:00 +10°C° 0 mm 4 m/s 764 mmHg 77%
    02:00 +10°C° 0 mm 4 m/s 764 mmHg 75%
    03:00 +11°C° 0 mm 4 m/s 764 mmHg 73%
    04:00 +10°C° 0 mm 5 m/s 764 mmHg 70%
    05:00 +10°C° 0 mm 5 m/s 764 mmHg 67%
    06:00 +12°C° 0 mm 5 m/s 765 mmHg 64%
    07:00 +12°C° 0 mm 5 m/s 765 mmHg 62%
    08:00 +12°C° 0 mm 5 m/s 765 mmHg 60%
    09:00 +13°C° 0 mm 5 m/s 765 mmHg 58%
    10:00 +13°C° 0 mm 4 m/s 765 mmHg 57%
    11:00 +13°C° 0 mm 4 m/s 765 mmHg 56%
    12:00 +14°C° 0 mm 4 m/s 765 mmHg 55%
    13:00 +14°C° 0 mm 4 m/s 765 mmHg 57%
    14:00 +14°C° 0 mm 4 m/s 765 mmHg 58%
    15:00 +13°C° 0 mm 5 m/s 765 mmHg 59%
    16:00 +13°C° 0 mm 4 m/s 765 mmHg 59%
    17:00 +13°C° 0 mm 4 m/s 765 mmHg 59%
    18:00 +13°C° 0 mm 3 m/s 765 mmHg 60%
    19:00 +12°C° 0 mm 3 m/s 765 mmHg 65%
    20:00 +10°C° 0 mm 2 m/s 765 mmHg 69%
    21:00 +10°C° 0 mm 1 m/s 765 mmHg 74%
    22:00 +9°C° 0 mm 2 m/s 765 mmHg 75%
    23:00 +9°C° 0 mm 2 m/s 764 mmHg 76%
    Mostrar mais